241P/LINEAR (2021)

Japanese version
Home page
Updated on August 28, 2020

---------------------------------------------------------------------

* Profile

* Orbital Elements

Epoch 2021 Aug. 14.0 TT = JDT 2459440.5
T 2021 July 25.79403 TT                                 Rudenko
q   1.9174590            (2000.0)            P               Q
n   0.09043432     Peri.  111.42591     +0.49511836     -0.81784816
a   4.9156453      Node   305.48302     +0.60206947     +0.56629593
e   0.6099273      Incl.   21.10651     +0.62639458     +0.10214353
P  10.9
From 381 observations 1999 Oct. 30-2020 Aug. 23, mean residual 0".8.

* Magnitudes Graph

        m1 = 11.5 + 5 log d + 15.0 log r(t - 60)

---------------------------------------------------------------------

The orbital elements are published on M.P.E.C. 2020-Q175.
The magnitudes graphs are made with Comet for Windows.

---------------------------------------------------------------------

Copyright(C) Seiichi Yoshida (comet@aerith.net). All rights reserved.